WLS320 GCFV-EGFF

Flight info

Callsign WLS320
Flight time N/A
Altitude 34000
Route SAMAR DCT BEXAL/N0454F360 DCT GANBA DCT PINEK DCT KORUL DCT EBOMO DCT SKESO/N0402F240 N862 SKERY N864 DAWLY
Aircraft A320/M-SDE3FGHIRWY/LB1

Departure

Time 2026-04-29 07:34
Airport Fuerteventura Airport (GCFV)

Arrival

Time N/A
Airport Cardiff International Airport (EGFF)
Time Latitude Longitude Altitude Speed Heading
2026-04-29 06:51 28.45488 -13.86655 88 ft 0 kts 270°
2026-04-29 07:26 28.45488 -13.86653 87 ft 2 kts 270°
2026-04-29 07:26 28.45488 -13.86623 87 ft 4 kts 268°
2026-04-29 07:26 28.45490 -13.86592 87 ft 4 kts 258°
2026-04-29 07:26 28.45499 -13.86567 91 ft 4 kts 209°
2026-04-29 07:27 28.45506 -13.86563 89 ft 0 kts 180°
2026-04-29 07:29 28.45436 -13.86562 87 ft 29 kts 180°
2026-04-29 07:29 28.45244 -13.86569 86 ft 26 kts 182°
2026-04-29 07:30 28.45055 -13.86576 83 ft 28 kts 181°
2026-04-29 07:30 28.44854 -13.86582 70 ft 30 kts 181°
2026-04-29 07:30 28.44641 -13.86588 67 ft 31 kts 180°
2026-04-29 07:31 28.44181 -13.86603 63 ft 35 kts 181°
2026-04-29 07:31 28.43979 -13.86610 62 ft 29 kts 182°
2026-04-29 07:31 28.43768 -13.86619 53 ft 31 kts 182°
2026-04-29 07:31 28.43550 -13.86628 56 ft 33 kts 182°
2026-04-29 07:32 28.43331 -13.86632 52 ft 22 kts 174°
2026-04-29 07:32 28.43246 -13.86576 49 ft 8 kts 122°
2026-04-29 07:32 28.43248 -13.86550 52 ft 0 kts 92°
2026-04-29 07:33 28.43258 -13.86505 51 ft 16 kts 56°
2026-04-29 07:33 28.43347 -13.86441 55 ft 16 kts
2026-04-29 07:33 28.43490 -13.86436 55 ft 40 kts
2026-04-29 07:34 28.43995 -13.86417 54 ft 104 kts
2026-04-29 07:34 28.44896 -13.86387 86 ft 153 kts
2026-04-29 07:34 28.46064 -13.86326 328 ft 173 kts
2026-04-29 07:34 28.47243 -13.86075 925 ft 175 kts 28°
2026-04-29 07:35 28.48166 -13.85183 1628 ft 175 kts 40°
2026-04-29 07:35 28.49179 -13.84361 2126 ft 188 kts 30°
2026-04-29 07:35 28.50379 -13.83577 2471 ft 209 kts 28°
2026-04-29 07:35 28.51712 -13.82743 2806 ft 229 kts 28°
2026-04-29 07:36 28.53180 -13.81820 3210 ft 250 kts 28°
2026-04-29 07:36 28.54731 -13.80831 3873 ft 259 kts 29°
2026-04-29 07:36 28.56290 -13.79824 4661 ft 263 kts 29°
2026-04-29 07:36 28.57926 -13.78846 5413 ft 269 kts 25°
2026-04-29 07:37 28.59645 -13.77948 6163 ft 274 kts 23°
2026-04-29 07:37 28.61412 -13.77072 6862 ft 280 kts 22°
2026-04-29 07:37 28.63217 -13.76188 7570 ft 284 kts 22°
2026-04-29 07:37 28.65046 -13.75287 8295 ft 289 kts 22°
2026-04-29 07:38 28.66900 -13.74366 9022 ft 293 kts 22°
2026-04-29 07:38 28.68777 -13.73422 9754 ft 297 kts 22°
2026-04-29 07:38 28.70664 -13.72468 10252 ft 309 kts 22°
2026-04-29 07:38 28.72699 -13.71438 10426 ft 332 kts 22°
2026-04-29 07:39 28.74864 -13.70338 10810 ft 345 kts 22°
2026-04-29 07:39 28.77076 -13.69210 11422 ft 351 kts 22°
2026-04-29 07:39 28.79316 -13.68067 12086 ft 355 kts 22°
2026-04-29 07:39 28.81585 -13.66908 12747 ft 359 kts 22°
2026-04-29 07:40 28.83879 -13.65736 13388 ft 363 kts 22°
2026-04-29 07:40 28.86192 -13.64551 14032 ft 366 kts 22°
2026-04-29 07:40 28.88528 -13.63355 14611 ft 370 kts 22°
2026-04-29 07:40 28.90860 -13.62175 15171 ft 373 kts 19°
2026-04-29 07:41 28.93355 -13.61356 15717 ft 374 kts
2026-04-29 07:41 28.95948 -13.61164 16277 ft 374 kts 354°
2026-04-29 07:41 28.98515 -13.61607 16839 ft 373 kts 342°
2026-04-29 07:41 29.00983 -13.62539 17404 ft 375 kts 338°
2026-04-29 07:42 29.03457 -13.63517 17971 ft 378 kts 338°
2026-04-29 07:42 29.05960 -13.64502 18493 ft 382 kts 338°
2026-04-29 07:42 29.08482 -13.65489 18980 ft 385 kts 338°
2026-04-29 07:42 29.11027 -13.66483 19465 ft 388 kts 338°
2026-04-29 07:43 29.13560 -13.67475 19957 ft 391 kts 338°
2026-04-29 07:43 29.16149 -13.68489 20437 ft 395 kts 338°
2026-04-29 07:43 29.18753 -13.69508 20926 ft 398 kts 338°
2026-04-29 07:43 29.21382 -13.70538 21410 ft 401 kts 338°
2026-04-29 07:44 29.24029 -13.71580 21897 ft 404 kts 338°
2026-04-29 07:44 29.26691 -13.72633 22382 ft 407 kts 338°
2026-04-29 07:44 29.29379 -13.73695 22853 ft 410 kts 338°
2026-04-29 07:44 29.32087 -13.74764 23317 ft 413 kts 338°
2026-04-29 07:45 29.34817 -13.75840 23738 ft 416 kts 339°
2026-04-29 07:45 29.37527 -13.76906 24115 ft 419 kts 339°
2026-04-29 07:45 29.40294 -13.77995 24514 ft 421 kts 339°
2026-04-29 07:45 29.43072 -13.79090 24873 ft 423 kts 339°
2026-04-29 07:46 29.45863 -13.80190 25238 ft 426 kts 339°
2026-04-29 07:46 29.48671 -13.81302 25600 ft 428 kts 339°
2026-04-29 07:46 29.51491 -13.82418 25955 ft 430 kts 339°
2026-04-29 07:46 29.54327 -13.83538 26309 ft 432 kts 339°
2026-04-29 07:47 29.57168 -13.84661 26660 ft 433 kts 339°
2026-04-29 07:47 29.60030 -13.85793 27024 ft 435 kts 339°
2026-04-29 07:47 29.62890 -13.86927 27401 ft 436 kts 338°
2026-04-29 07:47 29.65760 -13.88068 27753 ft 437 kts 338°
2026-04-29 07:48 29.68606 -13.89202 28053 ft 440 kts 339°
2026-04-29 07:48 29.71504 -13.90356 28355 ft 442 kts 339°
2026-04-29 07:48 29.74421 -13.91517 28666 ft 444 kts 338°
2026-04-29 07:48 29.77345 -13.92683 28966 ft 446 kts 338°
2026-04-29 07:49 29.80285 -13.93854 29269 ft 448 kts 339°
2026-04-29 07:49 29.83231 -13.95027 29555 ft 450 kts 338°
2026-04-29 07:49 29.86191 -13.96206 29841 ft 451 kts 338°
2026-04-29 07:49 29.89167 -13.97390 30108 ft 453 kts 338°
2026-04-29 07:50 29.92150 -13.98579 30345 ft 454 kts 338°
2026-04-29 07:50 29.95137 -13.99769 30584 ft 455 kts 338°
2026-04-29 07:50 29.98132 -14.00964 30821 ft 455 kts 338°
2026-04-29 07:50 30.01086 -14.02143 31051 ft 456 kts 338°
2026-04-29 07:51 30.04083 -14.03342 31278 ft 456 kts 338°
2026-04-29 07:51 30.07083 -14.04542 31495 ft 457 kts 338°
2026-04-29 07:51 30.10083 -14.05743 31758 ft 455 kts 338°
2026-04-29 07:51 30.13069 -14.06941 32066 ft 453 kts 338°
2026-04-29 07:52 30.16039 -14.08138 32370 ft 451 kts 338°
2026-04-29 07:52 30.18993 -14.09328 32674 ft 449 kts 338°
2026-04-29 07:52 30.21945 -14.10510 32942 ft 448 kts 338°
2026-04-29 07:52 30.24885 -14.11688 33202 ft 447 kts 338°
2026-04-29 07:53 30.27781 -14.12848 33475 ft 446 kts 338°
2026-04-29 07:53 30.30708 -14.14021 33755 ft 444 kts 338°
2026-04-29 07:53 30.33622 -14.15192 34030 ft 443 kts 338°
2026-04-29 07:53 30.36526 -14.16364 34269 ft 441 kts 337°
2026-04-29 07:54 30.39420 -14.17534 34492 ft 440 kts 337°
2026-04-29 07:54 30.42312 -14.18703 34702 ft 440 kts 337°
2026-04-29 07:54 30.45197 -14.19869 34906 ft 439 kts 337°
2026-04-29 07:54 30.48085 -14.21034 35022 ft 438 kts 337°
2026-04-29 07:55 30.53758 -14.23326 35037 ft 432 kts 337°
2026-04-29 07:55 30.59431 -14.25630 35038 ft 431 kts 337°
2026-04-29 07:56 30.64956 -14.28268 35038 ft 429 kts 332°
2026-04-29 07:56 30.70383 -14.31147 35038 ft 429 kts 332°
2026-04-29 07:57 30.75806 -14.34023 35046 ft 429 kts 332°
2026-04-29 07:57 30.81205 -14.36895 35035 ft 429 kts 332°
2026-04-29 07:58 30.86641 -14.39789 35031 ft 430 kts 332°
2026-04-29 07:58 30.92193 -14.42368 35028 ft 435 kts 347°
2026-04-29 07:59 30.95228 -14.42474 35024 ft 442 kts
2026-04-29 07:59 30.98182 -14.41433 35019 ft 449 kts 25°
2026-04-29 07:59 31.00720 -14.39288 35019 ft 456 kts 45°
2026-04-29 07:59 31.02792 -14.36474 35014 ft 458 kts 45°
2026-04-29 08:00 31.07631 -14.31861 35007 ft 451 kts 24°
2026-04-29 08:00 31.13265 -14.28642 35012 ft 452 kts 22°
2026-04-29 08:01 31.18972 -14.25530 35012 ft 453 kts 21°
2026-04-29 08:01 31.24690 -14.22412 35016 ft 454 kts 21°
2026-04-29 08:02 31.30370 -14.19282 35025 ft 455 kts 22°
2026-04-29 08:02 31.36093 -14.16103 35021 ft 456 kts 22°
2026-04-29 08:03 31.41822 -14.12907 35022 ft 456 kts 22°
2026-04-29 08:03 31.47553 -14.09715 35023 ft 456 kts 22°
2026-04-29 08:04 31.53288 -14.06512 35018 ft 457 kts 22°
2026-04-29 08:04 31.58995 -14.03332 35031 ft 457 kts 22°
2026-04-29 08:05 31.64738 -14.00119 35029 ft 458 kts 22°
2026-04-29 08:05 31.70486 -13.96902 35030 ft 458 kts 22°
2026-04-29 08:06 31.76239 -13.93684 35032 ft 458 kts 22°
2026-04-29 08:06 31.81988 -13.90461 35032 ft 458 kts 22°
2026-04-29 08:07 31.87697 -13.87259 35040 ft 458 kts 22°
2026-04-29 08:07 31.93449 -13.84025 35018 ft 459 kts 22°
2026-04-29 08:08 31.99212 -13.80774 35010 ft 460 kts 22°
2026-04-29 08:08 32.04984 -13.77516 35015 ft 461 kts 22°
2026-04-29 08:09 32.10730 -13.74259 35018 ft 461 kts 22°
2026-04-29 08:09 32.16515 -13.70982 35029 ft 461 kts 22°
2026-04-29 08:10 32.22307 -13.67705 35029 ft 461 kts 22°
2026-04-29 08:10 32.28093 -13.64430 35026 ft 461 kts 22°
2026-04-29 08:11 32.33876 -13.61146 35019 ft 461 kts 22°
2026-04-29 08:11 32.39624 -13.57871 35019 ft 461 kts 22°
2026-04-29 08:12 32.45403 -13.54574 35028 ft 461 kts 22°
2026-04-29 08:12 32.51187 -13.51271 35025 ft 461 kts 22°
2026-04-29 08:13 32.56975 -13.47955 35019 ft 462 kts 22°
2026-04-29 08:13 32.62727 -13.44659 35010 ft 463 kts 22°
2026-04-29 08:14 32.68534 -13.41338 35005 ft 463 kts 22°
2026-04-29 08:14 32.74343 -13.38023 35007 ft 464 kts 22°
2026-04-29 08:15 32.80152 -13.34691 35009 ft 464 kts 22°
2026-04-29 08:15 32.85967 -13.31333 35013 ft 464 kts 22°
2026-04-29 08:16 32.91741 -13.28004 35016 ft 464 kts 22°
2026-04-29 08:16 32.97554 -13.24641 35025 ft 464 kts 22°
2026-04-29 08:17 33.03367 -13.21290 35023 ft 464 kts 22°
2026-04-29 08:17 33.09176 -13.17929 35021 ft 464 kts 22°
2026-04-29 08:18 33.14944 -13.14583 35015 ft 464 kts 22°
2026-04-29 08:18 33.20739 -13.11205 35009 ft 464 kts 22°
2026-04-29 08:19 33.26546 -13.07823 35008 ft 464 kts 22°
2026-04-29 08:19 33.32363 -13.04443 35005 ft 465 kts 22°
2026-04-29 08:20 33.38139 -13.01074 34999 ft 465 kts 22°
2026-04-29 08:20 33.43953 -12.97680 35000 ft 465 kts 22°
2026-04-29 08:21 33.46857 -12.95956 34892 ft 467 kts 27°
2026-04-29 08:21 33.49721 -12.94119 34322 ft 468 kts 30°
2026-04-29 08:21 33.52560 -12.92147 33228 ft 476 kts 32°
2026-04-29 08:21 33.55412 -12.90015 31685 ft 491 kts 33°
2026-04-29 08:22 33.58316 -12.87744 30235 ft 503 kts 33°
2026-04-29 08:22 33.61257 -12.85492 29236 ft 500 kts 33°
2026-04-29 08:22 33.64162 -12.83318 29016 ft 480 kts 30°
2026-04-29 08:22 33.67015 -12.81590 29275 ft 452 kts 24°
2026-04-29 08:23 33.69865 -12.80278 29492 ft 426 kts 18°
2026-04-29 08:23 33.72633 -12.79298 29684 ft 404 kts 17°
2026-04-29 08:23 33.75265 -12.78388 29830 ft 384 kts 17°
2026-04-29 08:23 33.77818 -12.77494 29967 ft 384 kts 17°
2026-04-29 08:24 33.80395 -12.76575 30136 ft 389 kts 17°
2026-04-29 08:24 33.83002 -12.75631 30336 ft 393 kts 17°
2026-04-29 08:24 33.85632 -12.74671 30556 ft 397 kts 17°
2026-04-29 08:24 33.88250 -12.73575 30821 ft 400 kts 23°
2026-04-29 08:25 33.90750 -12.72175 31093 ft 404 kts 29°
2026-04-29 08:25 33.93174 -12.70440 31373 ft 407 kts 36°
2026-04-29 08:25 33.95470 -12.68422 31552 ft 412 kts 39°
2026-04-29 08:25 33.97734 -12.66255 31575 ft 420 kts 40°
2026-04-29 08:26 34.02511 -12.61998 31557 ft 434 kts 34°
2026-04-29 08:26 34.07759 -12.58268 31674 ft 443 kts 27°